Temperature
25 26 25 24 23 23 22 22 21 20 19 16 14 14 12 12 11 10 10 10 10 10 10 10 9 9 9 9 9 9 8 8 8 9 9 9 9 10 10 11 11 12 12 12
25 25 24 22 21 20 20 19 19 18 16 15 13 12 12 11 11 11 11 12 11 11 11 10 10 10 9 9 9 8 8 8 8 8 8 8 9 9 9 10 10 11 11 12
24 25 23 21 17 18 18 17 17 16 15 14 14 13 13 13 13 12 12 12 11 11 11 10 10 10 9 9 9 9 8 8 8 8 8 8 9 9 9 9 10 10 11 11
24 23 21 16 17 17 16 16 16 15 15 15 14 14 13 13 13 12 12 11 11 10 10 10 10 10 9 9 9 9 8 8 8 8 9 9 9 9 9 9 9 10 10 11
23 23 20 16 16 16 15 16 16 15 15 15 14 13 14 14 12 11 11 10 10 10 9 9 9 9 9 9 9 8 8 8 8 8 8 9 9 9 8 8 8 9 9 10
22 21 20 16 16 15 16 16 15 15 14 14 13 13 14 12 11 10 10 10 9 9 9 9 9 8 8 8 8 8 8 8 8 8 8 8 8 8 8 8 8 8 9 9
20 20 18 16 16 17 16 16 14 13 13 12 12 12 11 11 10 10 9 9 9 9 8 8 8 8 7 7 7 7 7 7 7 7 7 7 7 8 8 8 8 8 8 9
19 19 17 15 16 15 14 13 13 12 12 11 11 11 10 10 10 9 9 9 9 8 8 7 7 7 7 7 7 7 7 7 7 7 7 8 8 8 8 8 8 8 8 8
18 17 15 15 15 14 13 12 12 11 11 10 10 10 10 10 9 9 9 8 8 7 7 7 6 6 6 6 6 6 6 6 6 6 6 7 7 8 8 8 8 8 7 8
17 17 16 15 14 13 12 11 11 10 10 10 10 10 9 9 9 9 8 8 7 7 6 6 6 5 5 5 5 5 5 5 5 6 6 6 7 7 8 8 8 8 7 7
16 16 15 15 13 12 11 10 10 10 10 10 9 9 9 9 9 8 8 7 6 6 5 5 5 4 4 4 4 5 5 5 5 5 6 6 7 7 8 8 8 7 7 7
15 14 14 13 12 11 11 10 10 10 9 9 9 9 9 8 8 7 7 6 6 5 5 4 4 4 4 4 4 4 4 4 5 5 5 6 7 7 7 7 7 7 7 7
13 13 12 11 11 10 10 10 10 9 9 9 9 9 8 8 7 7 6 5 5 4 4 4 4 4 4 4 4 4 4 4 4 4 5 6 6 7 7 7 7 7 7 7
12 11 11 11 10 10 10 9 9 9 9 9 9 8 8 7 7 6 5 4 4 3 3 3 4 4 4 4 4 4 4 4 4 4 5 5 6 7 7 7 7 6 6 7
12 11 10 10 10 10 9 9 9 9 9 8 8 8 7 6 5 5 4 3 3 3 3 3 4 4 4 4 4 4 4 4 4 4 4 5 6 7 7 7 7 7 6 6
11 10 10 10 10 9 9 9 9 8 8 8 7 7 6 5 4 4 3 3 3 3 3 4 4 4 4 4 4 4 4 4 4 4 5 5 6 7 7 7 7 7 6 6
10 10 10 9 9 9 8 8 8 8 7 7 6 6 4 4 3 3 3 3 3 4 4 4 4 4 4 4 4 4 4 4 4 4 5 6 6 7 7 7 7 6 6 6
10 9 9 9 8 8 8 7 7 7 6 6 5 4 3 3 3 3 3 4 4 4 5 4 4 4 4 4 4 4 4 4 5 5 6 6 7 7 7 7 6 6 6 6
10 9 9 8 8 7 7 6 6 6 6 5 4 3 3 3 3 3 4 4 4 5 5 5 4 4 4 4 4 4 4 5 5 6 6 6 6 6 6 6 6 6 6 6
9 9 8 7 7 7 6 6 6 5 5 4 3 3 3 3 3 4 4 4 5 5 5 5 5 5 4 4 4 5 5 5 6 6 6 6 6 6 6 6 6 7 7 7
9 8 7 7 6 6 6 5 5 5 4 3 3 3 3 3 4 4 4 5 5 5 5 5 5 5 5 5 5 5 5 6 6 6 6 6 6 6 6 7 7 7 7 8
8 7 7 6 6 6 5 5 5 4 3 3 3 3 3 4 4 4 5 5 5 6 6 6 6 6 5 5 6 6 6 6 6 6 6 6 6 7 7 7 8 8 8 8
7 7 6 6 5 5 5 5 5 4 3 3 3 3 3 4 4 4 5 5 6 6 6 6 6 6 6 6 6 6 6 7 7 7 7 7 7 7 8 8 8 8 9 9
7 6 6 5 5 5 5 5 4 4 3 3 3 4 4 4 4 5 5 6 6 7 7 7 7 7 7 6 7 7 7 7 7 7 7 8 8 8 9 9 9 9 9 10
6 6 5 5 5 5 5 5 4 3 3 3 4 4 4 4 4 5 6 6 7 7 7 7 7 7 7 7 7 7 7 7 8 8 8 9 9 9 10 10 10 10 10 10
6 6 5 5 5 5 5 4 4 3 3 3 3 4 4 4 5 6 6 7 7 8 8 8 8 8 8 8 8 8 8 8 8 9 9 10 10 10 11 11 11 11 11 11
6 6 6 6 6 5 5 4 4 3 3 3 3 3 4 4 5 6 6 7 7 8 8 8 8 8 8 8 8 8 9 9 9 9 10 10 11 11 11 11 11 11 11 11
Wind_Speed
11 10 8 7 7 7 8 9 10 9 5 5 8 11 12 13 15 16 16 15 14 14 14 13 13 13 13 13 12 12 12 12 12 12 12 13 14 14 15 15 16 15 15 15
11 6 5 1 6 6 5 7 7 6 2 6 11 12 14 16 18 20 20 19 19 19 19 19 18 18 17 16 16 15 15 15 14 14 13 14 14 15 15 15 15 15 16 16
10 5 9 2 7 8 6 5 7 6 6 12 16 16 17 20 22 22 21 21 22 22 22 22 21 20 20 19 18 18 18 18 17 16 16 15 15 14 14 14 14 14 15 16
10 10 8 6 6 7 7 5 4 5 10 16 20 21 22 23 21 20 23 25 25 24 24 24 23 22 22 21 20 20 19 19 18 17 18 16 15 15 14 13 12 12 13 15
7 11 2 5 5 8 9 12 5 9 18 23 25 26 24 19 21 25 27 26 25 25 26 25 25 24 24 23 22 21 21 20 19 19 19 18 17 16 14 13 12 12 11 13
6 9 6 5 7 9 10 9 4 18 24 26 27 25 23 24 26 27 27 25 26 26 26 26 25 24 24 24 23 22 21 20 19 18 19 19 18 17 15 13 13 12 10 12
8 8 3 5 9 12 11 13 20 23 24 26 26 24 28 30 29 28 28 28 27 27 25 24 24 23 24 24 23 22 21 20 19 19 18 19 18 16 15 14 13 12 10 10
7 7 3 7 11 10 14 19 21 24 25 26 27 28 29 29 29 29 29 28 27 25 24 23 22 22 24 24 23 21 20 20 19 19 18 17 16 15 15 13 13 11 8 7
5 5 3 8 12 14 17 20 23 23 26 27 28 30 31 30 29 28 28 27 25 25 24 22 21 20 23 23 21 21 21 20 19 19 17 17 16 16 14 13 11 9 7 6
5 4 9 15 15 17 19 22 23 24 26 28 30 31 31 29 28 28 28 26 25 26 25 23 22 22 22 22 21 20 20 19 18 17 17 16 14 14 13 11 10 8 5 5
8 9 14 13 19 21 22 22 24 25 26 28 30 31 30 28 28 27 26 26 24 23 24 25 23 21 21 21 20 20 19 18 16 16 16 14 14 12 12 10 7 6 5 4
8 12 16 21 21 22 22 24 25 27 28 28 28 30 30 28 27 27 27 26 25 25 25 24 23 22 21 20 20 19 17 16 14 13 13 12 12 12 13 11 8 9 8 6
11 16 18 21 22 22 21 25 26 27 29 29 27 28 29 28 26 27 27 27 26 25 24 24 23 22 21 20 18 17 16 15 12 11 11 12 11 11 9 9 11 11 11 11
13 15 19 20 22 23 24 26 26 28 27 27 27 28 28 28 28 28 27 26 25 25 24 23 22 21 19 17 15 15 15 13 12 11 11 11 11 10 9 8 8 7 8 11
14 16 18 21 22 24 25 26 27 27 27 28 27 28 28 28 28 28 27 25 25 24 24 22 21 18 15 14 13 12 10 9 9 10 10 10 11 10 9 8 6 5 4 6
16 17 18 21 23 25 26 27 27 28 28 28 28 29 29 28 28 27 26 24 24 24 23 21 17 14 12 10 9 7 7 8 9 8 8 9 10 9 8 6 6 5 4 6
16 19 21 22 24 25 26 26 26 27 28 28 29 30 29 28 27 27 26 25 23 22 20 15 12 10 10 8 6 4 4 6 10 9 8 9 8 7 6 5 5 4 5 9
15 18 20 21 23 25 26 27 26 27 27 28 28 28 28 27 27 27 27 25 22 19 14 11 9 9 7 6 3 2 2 4 6 7 6 6 5 5 5 5 5 5 5 10
16 18 20 21 22 23 24 24 25 26 26 26 26 26 26 26 25 26 25 23 19 16 13 10 8 7 6 4 3 1 2 3 4 4 4 4 4 4 5 5 5 5 7 12
16 18 20 22 22 22 23 23 24 23 24 25 25 25 26 26 26 25 23 18 14 13 13 10 9 7 5 3 3 1 1 2 2 2 2 3 4 4 4 5 5 7 9 14
16 18 20 21 21 22 22 22 22 23 24 24 24 24 25 25 25 22 19 16 15 15 12 8 6 6 5 3 2 1 1 1 2 2 2 2 3 3 4 4 6 9 13 16
15 16 18 19 20 21 20 20 20 22 23 23 24 24 24 24 24 21 18 14 15 16 11 7 6 6 6 6 2 1 0 1 1 1 1 2 2 3 4 6 10 12 14 16
14 15 17 18 19 20 20 19 21 21 22 23 23 22 22 21 17 17 17 16 15 16 10 6 7 6 7 5 3 2 2 1 1 1 0 1 1 3 6 10 12 13 14 15
13 14 15 16 17 17 18 20 20 19 21 21 20 21 19 17 17 15 15 18 19 17 9 7 6 6 7 3 3 2 2 2 2 1 1 2 4 6 8 10 11 12 13 15
12 13 13 15 15 14 16 18 19 19 19 18 21 22 18 14 15 16 16 18 20 16 11 9 7 6 4 3 3 3 3 3 3 3 3 4 7 8 9 10 11 11 12 12
11 11 11 12 12 12 13 14 14 15 16 17 18 18 17 16 17 16 15 17 20 17 13 11 9 7 6 5 5 4 4 4 4 3 5 7 8 9 10 11 13 11 11 11
10 9 9 10 11 12 13 13 14 15 15 17 17 17 17 17 16 17 17 15 15 14 13 12 11 10 9 8 7 6 5 5 5 5 6 8 8 9 11 12 10 10 10 10
Wind_Direction
283 291 284 289 309 315 308 314 308 329 13 47 2 338 323 314 310 307 304 300 296 293 293 294 295 294 294 294 292 290 289 289 288 290 294 298 302 306 306 296 279 265 257 251
282 284 276 268 12 349 344 340 335 330 25 8 331 316 305 302 301 300 301 302 302 301 301 301 301 299 298 296 293 288 283 281 280 279 280 283 289 295 298 297 287 272 258 249
297 306 269 220 23 2 355 351 337 330 334 327 318 314 311 309 303 301 304 308 308 306 303 301 299 297 294 293 292 289 285 282 279 276 274 274 277 282 289 296 295 283 264 249
299 298 287 73 42 8 338 306 294 301 316 318 315 314 310 301 304 311 312 308 305 302 301 299 298 296 293 291 290 287 285 282 279 278 276 275 275 276 282 290 294 290 275 255
311 305 126 104 29 356 323 302 276 306 319 320 319 312 305 317 324 313 306 303 301 300 299 298 296 294 292 289 287 284 282 281 280 279 278 276 273 273 277 283 288 288 280 264
321 312 319 70 11 336 301 287 1 325 320 319 318 312 313 321 313 306 305 303 301 299 297 295 294 293 291 288 285 282 281 280 279 278 276 275 272 271 273 276 280 283 279 266
327 314 68 32 343 326 308 323 328 318 316 314 312 307 307 310 309 307 304 301 300 299 297 296 295 293 288 286 283 282 281 279 277 274 272 270 268 264 264 268 274 278 278 269
330 320 34 7 338 333 314 314 314 314 314 312 309 307 307 307 307 306 304 303 303 301 298 298 296 292 287 284 284 282 279 276 274 271 268 269 263 258 258 263 266 270 272 272
334 333 342 328 316 314 314 314 315 315 313 311 309 307 308 308 307 305 304 304 303 301 298 296 293 289 286 286 285 283 278 275 272 268 263 262 261 256 253 252 256 262 270 260
299 298 317 318 316 321 321 317 313 311 310 309 307 307 308 307 306 306 305 305 303 301 298 295 292 288 285 284 282 278 274 272 269 265 260 255 250 248 249 250 251 251 259 252
295 317 317 313 325 325 319 315 312 311 310 309 308 307 308 307 306 306 305 303 301 299 296 294 293 288 284 282 278 275 272 268 264 262 259 256 248 243 248 250 250 249 253 242
321 326 315 315 322 320 317 316 315 314 312 311 309 307 308 307 307 305 304 303 301 298 296 295 293 289 284 279 275 271 267 262 257 254 253 248 242 236 218 230 178 193 218 228
304 312 311 312 314 319 317 316 315 314 313 312 311 310 310 308 307 305 305 304 303 301 299 296 293 289 285 280 274 268 262 256 251 248 247 244 238 233 226 206 200 203 209 213
308 312 311 315 318 318 318 318 316 315 314 314 313 313 311 310 309 308 307 307 305 303 300 297 294 290 288 284 276 267 259 250 242 241 240 240 236 230 228 222 208 205 201 198
316 317 313 315 316 320 321 321 320 319 319 318 318 316 315 315 313 311 309 307 305 303 302 301 298 297 296 289 281 269 254 239 233 234 231 232 231 226 224 223 224 203 171 165
316 315 318 320 322 322 323 324 322 321 321 321 320 320 320 318 314 311 309 310 309 307 306 305 304 303 301 296 284 265 242 228 227 228 226 226 225 220 215 215 208 193 174 155
318 322 326 325 325 324 324 324 322 321 321 322 322 323 322 318 315 313 314 314 311 308 308 311 311 312 311 306 288 256 230 207 208 221 221 221 217 213 210 210 196 195 175 165
318 319 322 323 324 323 323 324 324 323 323 323 325 324 321 318 317 317 318 317 316 316 322 326 329 326 327 327 314 263 216 202 203 213 215 212 206 206 210 213 196 190 172 165
322 322 323 324 325 323 323 323 323 324 324 327 326 323 319 318 319 320 321 323 325 331 338 345 335 326 344 11 348 250 207 199 200 204 204 186 215 224 225 216 196 197 177 166
323 324 325 325 326 326 324 325 325 324 327 329 326 323 323 324 325 326 328 330 333 337 339 343 341 357 14 32 332 286 201 204 203 208 220 226 236 239 226 201 202 186 170 166
326 327 327 327 327 326 327 328 327 327 329 330 328 327 326 327 329 332 334 339 342 341 341 331 344 9 28 23 286 336 156 202 219 227 233 241 241 231 218 205 184 166 162 165
326 327 327 326 326 327 328 329 331 332 331 331 330 330 331 333 334 335 337 341 340 336 336 344 9 25 7 325 338 18 74 214 228 231 229 219 227 222 191 164 154 153 158 163
326 326 326 326 327 325 326 333 337 335 333 332 332 334 336 334 335 338 339 339 342 339 340 353 8 1 319 307 342 349 339 330 341 8 65 168 195 161 145 141 141 147 155 161
325 326 325 326 325 326 331 336 337 335 334 333 335 339 340 338 338 340 336 335 343 343 355 5 350 331 300 309 338 348 355 3 14 27 60 106 126 127 129 132 138 144 151 157
325 324 325 328 329 332 332 335 336 338 339 339 340 343 345 343 340 338 339 344 349 351 1 7 355 335 332 358 6 12 20 31 40 54 77 95 107 112 118 124 130 136 143 151
324 323 327 323 327 329 334 337 338 339 339 341 342 343 345 346 344 345 347 350 355 357 3 5 8 7 20 30 33 35 44 68 80 77 82 95 103 107 112 118 125 131 139 146
321 327 328 332 338 341 338 338 339 339 341 344 340 343 347 349 349 349 352 355 358 359 2 5 10 15 25 34 42 51 64 72 77 85 92 100 105 108 113 115 116 121 128 132
Height
1496 1493 1495 1498 1501 1502 1502 1503 1505 1505 1511 1522 1527 1528 1527 1524 1520 1516 1512 1508 1505 1501 1497 1494 1490 1486 1483 1479 1476 1472 1469 1466 1463 1460 1458 1455 1452 1450 1448 1446 1445 1444 1444 1443
1497 1494 1496 1504 1510 1510 1512 1512 1512 1514 1521 1526 1528 1526 1523 1519 1515 1510 1506 1502 1498 1495 1491 1488 1484 1480 1476 1472 1469 1465 1462 1459 1456 1453 1451 1448 1446 1444 1442 1440 1437 1436 1435 1436
1498 1493 1499 1508 1524 1521 1520 1521 1519 1521 1525 1525 1523 1520 1517 1512 1508 1503 1499 1495 1492 1488 1484 1480 1477 1472 1468 1464 1461 1458 1454 1451 1448 1446 1444 1442 1440 1438 1436 1433 1430 1428 1427 1428
1500 1500 1510 1532 1528 1527 1525 1524 1524 1524 1523 1521 1518 1514 1511 1506 1500 1496 1493 1490 1485 1481 1476 1472 1468 1464 1460 1456 1453 1449 1446 1443 1440 1438 1436 1435 1433 1431 1429 1426 1423 1421 1419 1420
1505 1502 1512 1529 1528 1529 1528 1522 1521 1522 1519 1516 1512 1507 1501 1498 1496 1493 1488 1482 1477 1472 1467 1462 1458 1454 1450 1446 1443 1440 1437 1434 1432 1430 1428 1426 1425 1424 1422 1420 1417 1414 1412 1411
1509 1514 1513 1532 1530 1530 1528 1518 1521 1520 1516 1512 1508 1498 1492 1493 1490 1485 1479 1474 1468 1463 1458 1453 1448 1444 1440 1436 1433 1430 1427 1425 1423 1421 1419 1417 1416 1415 1414 1412 1410 1407 1404 1403
1515 1514 1520 1531 1530 1527 1524 1521 1521 1519 1514 1510 1504 1499 1492 1486 1481 1476 1470 1464 1458 1452 1447 1442 1438 1434 1429 1425 1422 1419 1417 1415 1413 1411 1410 1408 1407 1406 1405 1404 1403 1401 1397 1395
1518 1520 1528 1532 1528 1529 1528 1524 1520 1515 1511 1505 1499 1492 1485 1479 1473 1466 1460 1454 1448 1442 1436 1432 1428 1423 1417 1414 1411 1408 1406 1404 1402 1401 1400 1399 1398 1397 1397 1397 1396 1394 1391 1389
1529 1529 1532 1531 1530 1528 1526 1521 1517 1512 1506 1500 1492 1484 1477 1470 1463 1457 1450 1444 1438 1432 1425 1420 1416 1412 1406 1402 1399 1397 1394 1392 1391 1390 1390 1390 1389 1389 1390 1389 1388 1387 1385 1384
1530 1527 1530 1530 1527 1525 1522 1518 1513 1507 1501 1494 1485 1477 1469 1461 1454 1447 1440 1434 1427 1421 1414 1408 1404 1399 1394 1390 1387 1384 1382 1381 1380 1380 1379 1380 1380 1381 1382 1382 1381 1381 1380 1379
1529 1528 1529 1525 1525 1522 1517 1513 1507 1501 1495 1488 1479 1470 1462 1453 1445 1437 1430 1423 1417 1409 1402 1395 1390 1385 1381 1377 1374 1371 1370 1369 1369 1369 1370 1370 1371 1373 1374 1375 1376 1376 1375 1374
1532 1532 1530 1524 1521 1518 1512 1507 1501 1494 1486 1480 1473 1463 1454 1445 1437 1429 1420 1412 1404 1397 1389 1382 1376 1371 1367 1364 1361 1359 1358 1358 1358 1359 1360 1362 1363 1365 1367 1369 1369 1370 1370 1371
1534 1531 1527 1522 1518 1513 1508 1501 1495 1488 1479 1471 1463 1456 1447 1437 1428 1419 1410 1401 1393 1384 1377 1369 1363 1357 1353 1351 1349 1347 1346 1347 1349 1350 1352 1354 1356 1359 1361 1362 1363 1364 1365 1367
1531 1528 1523 1518 1514 1508 1503 1496 1488 1481 1473 1465 1456 1448 1439 1429 1419 1410 1400 1391 1381 1373 1364 1357 1351 1346 1342 1339 1337 1336 1336 1338 1340 1342 1344 1347 1350 1352 1355 1357 1358 1359 1360 1363
1528 1525 1520 1514 1509 1503 1497 1490 1482 1473 1466 1458 1450 1441 1431 1421 1410 1400 1389 1380 1370 1361 1353 1346 1341 1336 1333 1330 1328 1327 1328 1330 1332 1335 1338 1341 1345 1347 1350 1352 1353 1354 1356 1359
1524 1520 1515 1510 1504 1498 1491 1484 1476 1468 1459 1451 1442 1434 1424 1414 1402 1390 1380 1370 1360 1351 1343 1337 1332 1328 1325 1323 1322 1322 1323 1325 1327 1330 1333 1337 1340 1343 1345 1348 1349 1351 1353 1356
1520 1515 1510 1505 1500 1494 1487 1480 1473 1464 1454 1445 1436 1427 1416 1405 1393 1382 1371 1361 1352 1343 1336 1331 1326 1324 1321 1319 1319 1319 1320 1322 1325 1328 1331 1334 1336 1339 1341 1344 1346 1348 1351 1354
1517 1513 1508 1503 1497 1489 1482 1475 1468 1459 1451 1442 1432 1421 1410 1398 1387 1375 1364 1354 1345 1338 1333 1328 1324 1322 1320 1319 1318 1319 1320 1322 1324 1327 1329 1332 1334 1336 1338 1341 1343 1345 1348 1352
1514 1509 1504 1499 1494 1487 1479 1471 1463 1455 1447 1438 1428 1417 1406 1395 1383 1372 1361 1351 1343 1336 1332 1328 1324 1322 1321 1320 1319 1320 1321 1323 1325 1327 1329 1330 1332 1334 1335 1337 1340 1342 1346 1351
1510 1506 1500 1495 1489 1483 1475 1468 1460 1452 1443 1434 1424 1413 1402 1391 1380 1369 1359 1350 1344 1338 1333 1329 1326 1325 1323 1322 1321 1323 1323 1324 1326 1327 1328 1329 1330 1331 1332 1334 1337 1340 1345 1351
1506 1502 1496 1491 1485 1479 1472 1465 1457 1449 1440 1431 1422 1412 1401 1390 1379 1368 1358 1351 1345 1339 1335 1331 1330 1328 1327 1325 1325 1325 1326 1326 1327 1328 1328 1328 1328 1329 1330 1332 1335 1340 1345 1353
1503 1498 1493 1487 1481 1475 1469 1463 1456 1447 1438 1429 1420 1411 1400 1389 1378 1368 1360 1354 1347 1341 1337 1335 1333 1331 1329 1328 1328 1328 1328 1328 1328 1328 1327 1327 1327 1328 1330 1333 1337 1342 1348 1356
1499 1495 1490 1484 1479 1472 1466 1461 1453 1445 1436 1427 1419 1410 1400 1390 1381 1371 1362 1355 1349 1344 1340 1338 1335 1333 1331 1331 1331 1330 1330 1329 1329 1328 1328 1327 1328 1330 1332 1336 1341 1346 1352 1359
1496 1491 1487 1482 1476 1471 1465 1458 1451 1443 1436 1428 1420 1411 1402 1391 1381 1374 1367 1359 1353 1348 1344 1341 1338 1336 1334 1334 1333 1332 1332 1331 1331 1330 1330 1331 1333 1335 1338 1342 1346 1351 1357 1362
1492 1488 1484 1479 1474 1469 1463 1457 1449 1442 1435 1427 1420 1411 1403 1394 1386 1377 1370 1364 1358 1353 1349 1345 1342 1340 1338 1337 1336 1336 1335 1335 1335 1335 1336 1337 1339 1342 1345 1348 1352 1356 1360 1365
1489 1485 1482 1478 1474 1469 1463 1456 1449 1443 1435 1428 1420 1412 1404 1396 1388 1381 1374 1368 1363 1358 1354 1351 1348 1345 1343 1342 1341 1340 1340 1340 1340 1341 1342 1344 1346 1348 1351 1354 1358 1361 1365 1369
1487 1483 1480 1476 1472 1467 1462 1456 1450 1444 1437 1431 1422 1415 1407 1399 1392 1385 1378 1373 1368 1364 1360 1357 1354 1352 1350 1348 1347 1346 1346 1346 1347 1347 1349 1351 1353 1356 1359 1361 1364 1367 1370 1373